Change the Weather History Date:

Sunday, September 14, 2003

  Actual Average Record
Temperature  
Mean Temperature 72 °F 72 °F  
Max Temperature 84 °F 82 °F 97 °F (1897)
Min Temperature 63 °F 61 °F 47 °F (1985)
Degree Days  
Heating Degree Days 0 0  
Month to date heating degree days 0  
Since 1 July heating degree days 0  
Cooling Degree Days 8 7  
Month to date cooling degree days 122  
Year to date cooling degree days 1399  
Growing Degree Days 22 (Base 50)    
Moisture  
Dew Point 67 °F    
Average Humidity 82    
Maximum Humidity 100    
Minimum Humidity 56    
Precipitation  
Precipitation 0.00 in 0.10 in 3.23 in (1924)
Month to date precipitation 1.50  
Year to date precipitation 30.10  
Snow  
Snow 0.00 in 0.00 in 0.00 in ()
Month to date snowfall 0.0  
Since 1 July snowfall 0.0  
Since 1 September snowfall 0.0  
Snow Depth -    
Sea Level Pressure  
Sea Level Pressure 30.12 in    
Wind  
Wind Speed 3 mph (SE)    
Max Wind Speed 9 mph    
Max Gust Speed -    
Visibility 7 miles    
Events      
T = Trace of Precipitation, MM = Missing Value Source: NWS Daily Summary

Daily Weather History Graph

Daily Weather History Graph

Search for Another Location

Airport or City:

Trip Planner

Search our weather history database for the weather conditions in past years. The results will help you decide how hot, cold, wet, or windy it might be!

Date:

Astronomy

Sep. 14, 2003 Rise Set
Actual Time 7:05 AM EDT 7:32 PM EDT
Civil Twilight 6:40 AM EDT 7:58 PM EDT
Nautical Twilight 6:10 AM EDT 8:28 PM EDT
Astronomical Twilight 5:39 AM EDT 8:58 PM EDT
Moon 9:45 PM EDT (9/14) 10:42 AM EDT (9/14)
Length of Visible Light 13h 18m
Length of Day
12h 27m
Waning Gibbous, 85% of the Moon is Illuminated
Sep 14
Waning Gibbous
Sep 18
Last Quarter
Sep 25
New
Oct 2
First Quarter
Oct 10
Full

Hourly Weather History & Observations

Time (EDT) Temp. Heat Index Dew Point Humidity Pressure Visibility Wind Dir Wind Speed Gust Speed Precip Events Conditions
12:51 AM 68.0 °F - 64.9 °F 90% 30.11 in 8.0 mi Calm Calm - N/A   Partly Cloudy
1:51 AM 66.9 °F - 66.0 °F 97% 30.12 in 8.0 mi SSE 3.5 mph - N/A   Partly Cloudy
2:51 AM 64.0 °F - 64.0 °F 100% 30.11 in 7.0 mi SSE 3.5 mph - N/A   Partly Cloudy
3:51 AM 66.0 °F - 64.9 °F 96% 30.10 in 7.0 mi South 3.5 mph - N/A   Clear
4:51 AM 66.0 °F - 64.9 °F 96% 30.11 in 7.0 mi Calm Calm - N/A   Clear
5:51 AM 64.0 °F - 64.0 °F 100% 30.12 in 7.0 mi SE 3.5 mph - N/A   Clear
6:51 AM 63.0 °F - 63.0 °F 100% 30.13 in 7.0 mi South 4.6 mph - N/A   Clear
7:51 AM 66.0 °F - 66.0 °F 100% 30.15 in 3.0 mi SSE 4.6 mph - N/A   Clear
8:37 AM 66.2 °F - 66.2 °F 100% 30.18 in 3.0 mi SSE 5.8 mph - N/A   Mostly Cloudy
8:51 AM 68.0 °F - 66.9 °F 96% 30.17 in 3.0 mi SSE 5.8 mph - N/A   Mostly Cloudy
9:11 AM 69.8 °F - 68.0 °F 94% 30.19 in 3.0 mi Variable 4.6 mph - N/A   Scattered Clouds
9:51 AM 71.1 °F - 68.0 °F 90% 30.17 in 5.0 mi Calm Calm - N/A   Scattered Clouds
10:51 AM 75.9 °F - 69.1 °F 79% 30.17 in 7.0 mi Calm Calm - N/A   Partly Cloudy
11:51 AM 79.0 °F - 69.1 °F 72% 30.17 in 8.0 mi SE 5.8 mph - N/A   Mostly Cloudy
12:51 PM 80.1 °F 82.7 °F 68.0 °F 67% 30.15 in 9.0 mi Calm Calm - N/A   Mostly Cloudy
1:51 PM 82.0 °F 85.5 °F 69.1 °F 65% 30.13 in 9.0 mi Calm Calm - N/A   Mostly Cloudy
2:51 PM 81.0 °F 83.3 °F 66.9 °F 62% 30.11 in 10.0 mi Variable 3.5 mph - N/A   Mostly Cloudy
3:51 PM 82.9 °F 85.0 °F 66.0 °F 56% 30.09 in 10.0 mi Variable 3.5 mph - N/A   Mostly Cloudy
4:51 PM 82.9 °F 85.0 °F 66.0 °F 56% 30.08 in 10.0 mi South 4.6 mph - N/A   Mostly Cloudy
5:51 PM 82.9 °F 85.0 °F 66.0 °F 56% 30.08 in 10.0 mi SE 8.1 mph - N/A   Scattered Clouds
6:51 PM 80.1 °F 82.1 °F 66.0 °F 62% 30.09 in 10.0 mi SE 9.2 mph - N/A   Mostly Cloudy
7:51 PM 79.0 °F - 68.0 °F 69% 30.09 in 10.0 mi ESE 9.2 mph - N/A   Mostly Cloudy
8:51 PM 78.1 °F - 68.0 °F 71% 30.10 in 9.0 mi East 6.9 mph - N/A   Mostly Cloudy
9:51 PM 75.0 °F - 68.0 °F 79% 30.10 in 8.0 mi ESE 4.6 mph - N/A   Mostly Cloudy
10:51 PM 71.1 °F - 66.9 °F 87% 30.11 in 7.0 mi ESE 3.5 mph - N/A   Mostly Cloudy
11:51 PM 71.1 °F - 68.0 °F 90% 30.10 in 7.0 mi ESE 4.6 mph - N/A   Scattered Clouds